Location: Falkner
(32.6954°N, 86.0502°W)
Time: 12:09:54
(UTC+00:00)

Cosmos 1300 - Pass Details

Date: 29 October 2020
Orbit: 511 x 514 km, 82.5° (Epoch: 04 December)

Event Time Altitude Azimuth Distance (km) Brightness Sun altitude
Rises 23:20:45 0° 196° (SSW) 2,611 6.7 -6.0°
Reaches altitude 10° 23:22:55 10° 201° (SSW) 1,730 5.9 -6.4°
Maximum altitude 23:26:36 51° 278° (W) 655 3.7 -7.2°
Drops below altitude 10° 23:30:20 10° 355° (N) 1,743 5.3 -7.9°
Sets 23:32:31 0° 1° (N) 2,633 6.2 -8.4°
